HESH - Sharm el-Sheikh Intl Aiport

HESH 170400Z 36013KT CAVOK 28/09 Q1013 NOSIG


Sceneries:

Scenery Link
HESH/SSH - AEROSOFT - Sharm El-Sheikh 2012
HESH/SSH - FREEWARE - HESH Photoreal

Briefing & Aerodrome Charts:

If are seeing this paragrapgh, it means that you don't have a web integerated PDF reader installed, however, you can still download the PDF from here.


Our Partners

VATSIM

VATSIM is the Virtual Air Traffic Simulation network, connecting people from around the world flying online or acting as virtual Air Traffic Controllers.

VATMENA

VATME - VATSIM Middle East & North Africa Divison is part of the Africa and Middle East Region on the VATSIM Network.

Egyptair Virtual

Egyptair Virtual simulates the real life operations of Egyptair yet is not releated to the actual Egyptair.